Hourly Data Report for March 17, 2017

All times are specified in Local Standard Time (LST). Add 1 hour to adjust for Daylight Saving Time where and when it is observed.

TORONTO CITY
ONTARIO

43°40'00.000" N
79°24'00.000" W
112.50 m
6158355
71508
XTO

Download Data

Hourly Data (March 2017)
Hourly Data Report for March 17, 2017
TIME Temp Definition
°C
Dew Point Definition
°C
Rel Hum Definition
%
Wind Dir Definition
10's deg

Wind Spd Definition
km/h
Visibility Definition
km
Stn Press Definition
kPa
Hmdx Definition


Wind Chill Definition


Weather Definition


00:00 -1.9 -7.7 64 LegendMM LegendMM   100.86     LegendNANA
01:00 -2.2 -8.0 64 LegendMM LegendMM   100.89     LegendNANA
02:00 -2.8 -8.2 66 LegendMM LegendMM   100.90     LegendNANA
03:00 -2.8 -8.0 67 LegendMM LegendMM   100.90     LegendNANA
04:00 -2.9 -8.4 66 LegendMM LegendMM   100.94     LegendNANA
05:00 -3.5 -8.4 69 LegendMM LegendMM   100.97     LegendNANA
06:00 -3.1 -8.1 68 LegendMM LegendMM   101.02     LegendNANA
07:00 -3.5 -8.1 70 LegendMM LegendMM   101.05     LegendNANA
08:00 -1.4 -7.3 64 LegendMM LegendMM   101.06     LegendNANA
09:00 1.3 -6.6 56 LegendMM LegendMM   101.08     LegendNANA
10:00 2.6 -7.1 49 LegendMM LegendMM   101.09     LegendNANA
11:00 4.0 -8.2 40 LegendMM LegendMM   101.04     LegendNANA
12:00 3.5 -7.3 45 LegendMM LegendMM   101.02     LegendNANA
13:00 3.6 -6.6 47 LegendMM LegendMM   100.96     LegendNANA
14:00 4.3 -6.1 47 LegendMM LegendMM   100.84     LegendNANA
15:00 4.6 -6.3 45 LegendMM LegendMM   100.78     LegendNANA
16:00 4.5 -4.8 51 LegendMM LegendMM   100.73     LegendNANA
17:00 4.0 -6.1 48 LegendMM LegendMM   100.69     LegendNANA
18:00 3.9 -6.5 47 LegendMM LegendMM   100.68     LegendNANA
19:00 3.9 -6.8 46 LegendMM LegendMM   100.66     LegendNANA
20:00 3.4 -4.5 56 LegendMM LegendMM   100.65     LegendNANA
21:00 3.2 -6.1 50 LegendMM LegendMM   100.64     LegendNANA
22:00 3.2 -4.4 58 LegendMM LegendMM   100.60     LegendNANA
23:00 2.9 -3.6 62 LegendMM LegendMM   100.57     LegendNANA

Notes on Data Quality.

Legend

  • E = Estimated
  • M = Missing
  • NA = Not Available
Date modified: